Flag for Germany Weather past 2 weeks in Aurich, Lower Saxony, Germany

Now
46 °F

Light rain. Partly sunny.


Feels Like: 40 °F
Forecast: 41 / 52 °F
Wind: 15 mph from West

Location: Wittmundhaven


UV Index: 3 (Moderate)

Visibility: 4 mi


Pressure: 29.86 "Hg

Humidity: 93%

Dew point: 45 °F

Location of AurichLocation

Historic Weather in Aurich

°F

Aurich temperature yesterday

Maximum temperature yesterday: 55 °F (at 2:20 PM)
Minimum temperature yesterday: 30 °F (at 4:20 AM)
Average temperature yesterday: 44 °F

Past Weeks' High & Low Weather Summary

 TemperatureHumidityPressure
High64 °F (Apr 7, 7:20 PM)100% (Apr 2, 10:20 PM)30.48 "Hg (Apr 2, 10:20 PM)
Low30 °F (Apr 16, 4:20 AM)33% (Apr 16, 3:20 PM)29.62 "Hg (Apr 8, 5:20 AM)
Average48 °F80%30.01 "Hg
* Reported Apr 2 9:20 PM — Apr 17 9:20 PM, Aurich, Weather by CustomWeather, © 2014

Note: Actual official high and low records may vary slightly from our data, if they occured in-between our weather recording intervals... More about our weather records

Advertising

Historic Weather Conditions — Data for Previous 24 hours

 ConditionsComfort  
Time TempWeatherWind HumidityBarometerVisibility
9:20 PM
Apr 17
46 °FLight rain. Partly sunny.15 mph93%29.86 "Hg4 mi
8:20 PM48 °FDrizzle. Fog.17 mph94%29.86 "Hg2 mi
6:20 PM55 °FLight rain. Partly sunny.16 mph55%29.89 "HgN/A
5:20 PM55 °FPartly sunny.23 mph55%29.92 "HgN/A
4:20 PM61 °FPartly sunny.21 mph36%29.92 "HgN/A
3:20 PM59 °FPartly sunny.20 mph42%29.95 "HgN/A
2:20 PM61 °FScattered clouds.20 mph36%30.01 "HgN/A
1:20 PM59 °FScattered clouds.20 mph42%30.04 "HgN/A
12:20 PM55 °FBroken clouds.17 mph51%30.07 "HgN/A
11:20 AM54 °FPartly sunny.16 mph54%30.12 "HgN/A
10:20 AM50 °FPartly sunny.16 mph58%30.15 "HgN/A
9:20 AM48 °FPartly sunny.14 mph62%30.15 "HgN/A
8:20 AM46 °FPartly sunny.12 mph62%30.15 "HgN/A
7:20 AM43 °FPassing clouds.8 mph71%30.18 "HgN/A
6:20 AM41 °FPassing clouds.7 mph76%30.21 "HgN/A
5:20 AM41 °FPassing clouds.6 mph70%30.21 "HgN/A
4:20 AM41 °FPassing clouds.6 mph70%30.24 "HgN/A
3:20 AM43 °FPassing clouds.7 mph71%30.27 "HgN/A
2:20 AM43 °FPassing clouds.6 mph71%30.30 "HgN/A
1:20 AM43 °FPassing clouds.6 mph71%30.30 "HgN/A
12:20 AM43 °FPassing clouds.2 mph76%30.33 "HgN/A
11:20 PM
Apr 16
45 °FPassing clouds.3 mph76%30.33 "HgN/A
10:20 PM45 °FPassing clouds.3 mph76%30.36 "HgN/A
Weather by CustomWeather, © 2014

See weather overview